#timestamp,LO_Frequency,Hit,StdDev 
1621998015.2,286046998.5,N
1621998035.0,286046998.1,N
1621998035.9,286046998.1,N
1621998055.8,286046998.5,N
1621998075.6,286046998.1,N
1621998095.5,286047001.1,N
1621998115.3,286046998.2,N
1621998135.1,286047000.3,N
1621998155.9,286047001.1,N
1621998175.7,286047000.0,N
1621998195.6,286047000.4,N
1621998215.4,286047000.5,N
1621998235.2,286047000.5,N
1621998255.1,286046998.1,N
1621998256.0,286046998.1,N
1621998275.8,286047000.4,N
1621998295.7,286047000.7,N
1621998315.5,286047000.3,N
1621998335.3,286047001.0,N
1621998355.2,286046999.9,N
1621998375.9,286047000.4,N
1621998395.7,286047000.8,N
1621998415.6,286047000.4,N
1621998435.4,286047001.1,N
1621998455.2,286047000.6,N
1621998475.1,286047000.4,N
1621998476.0,286047000.4,N
1621998495.8,286047001.1,N
1621998515.7,286047000.5,N
1621998535.5,286047001.0,N
1621998555.3,286047000.8,N
1621998575.2,286047000.8,N
1621998595.0,286047000.6,N
1621998595.9,286047000.6,N
1621998615.8,286047001.1,N
1621998635.6,286047000.3,N
1621998655.4,286047000.0,N
1621998675.3,286047000.3,N
1621998695.1,286047000.3,N
1621998715.8,286047000.5,N
1621998735.7,286047000.3,N
1621998755.5,286047000.6,N
1621998775.4,286047000.3,N
1621998795.2,286047000.4,N
1621998815.0,286046999.9,N
1621998815.9,286046999.9,N
1621998835.8,286047001.1,Y
1621998855.6,286046998.5,P
1621998875.5,286047000.7,N
1621998895.3,286046998.5,N
1621998915.1,286047000.7,N
1621998935.9,286046998.4,N
1621998955.7,286047000.8,N
1621998975.5,286047001.0,N
1621998995.4,286047001.1,N
1621999015.2,286047001.1,N
1621999035.1,286046998.2,N
1621999036.0,286046998.2,N
1621999055.8,286046998.2,N
1621999075.6,286047001.0,N
1621999095.5,286046998.6,N
1621999115.3,286047000.8,N
1621999135.1,286047000.8,N
1621999155.9,286047000.9,N
1621999175.7,286047001.0,N
1621999195.6,286047001.0,N
1621999215.4,286047001.0,N
1621999235.2,286047000.7,N
1621999255.1,286047000.6,N
1621999256.0,286047000.6,N
1621999275.8,286047000.9,N
1621999295.6,286047001.0,N
1621999315.5,286047000.9,N
1621999335.3,286047000.7,N
1621999355.2,286047001.0,N
1621999375.9,286047000.8,N
1621999395.7,286047000.6,N
1621999415.6,286047000.5,N
1621999435.4,286046999.9,N
1621999455.3,286047000.6,N
1621999475.1,286047001.1,N
1621999495.8,286046998.1,N
1621999515.7,286047001.2,N
1621999535.5,286046998.1,N
1621999555.4,286047000.9,N
1621999575.2,286046998.6,N
1621999595.0,286046998.2,N
1621999595.9,286046998.2,N
1621999615.8,286047001.2,N
1621999635.6,286047000.8,N
1621999655.4,286047000.9,N
1621999675.3,286047001.0,N
1621999695.1,286046998.1,N
1621999715.9,286046998.5,N
1621999735.7,286047000.6,N
1621999755.5,286047001.0,N
1621999775.4,286047000.9,N
1621999795.2,286047000.6,N
1621999815.1,286046998.1,N
1621999816.0,286046998.1,N
1621999835.8,286046998.5,N
1621999855.6,286046998.6,N
1621999875.5,286046998.2,N
1621999895.3,286046998.2,N
1621999915.1,286047000.9,N
1621999935.9,286047001.0,N
1621999955.7,286047001.1,N
1621999975.6,286046998.3,N
1621999995.4,286046998.6,N
1622000015.2,286047001.2,N
1622000035.1,286046998.5,N
1622000036.0,286046998.5,N
1622000055.8,286046999.1,N
1622000075.7,286046998.7,N
1622000095.5,286046998.4,N
1622000115.3,286046998.9,N
1622000135.2,286046999.2,N
1622000155.0,286046999.1,N
1622000155.9,286046999.1,N
1622000175.7,286046999.0,N
1622000195.6,286046999.5,N
1622000215.4,286046999.3,N
1622000235.3,286046999.3,N
1622000255.1,286046999.3,N
1622000256.0,286046999.3,N
1622000275.8,286046999.3,N
1622000295.7,286046999.1,N
1622000315.5,286046999.6,N
1622000335.4,286046996.6,Y
1622000355.2,286046998.2,P
1622000375.0,286047001.2,N
1622000375.9,286047001.2,N
1622000395.8,286047001.1,N
1622000415.6,286046998.3,N
1622000435.4,286046999.3,N
1622000455.3,286046998.2,N
1622000475.1,286047000.8,N
1622000495.9,286047001.2,N
1622000515.7,286046998.5,N
1622000535.5,286046999.2,N
1622000555.4,286046997.0,N
1622000575.2,286046997.3,N
1622000595.1,286046995.3,Y
1622000596.0,286046995.3,P
1622000615.8,286046995.1,N
1622000635.6,286046995.0,N
1622000655.5,286046996.2,N
1622000675.3,286046993.3,Y
1622000695.1,286046996.8,P
1622000715.9,286046996.6,P
1622000735.7,286046999.5,N
1622000755.6,286046997.0,N
1622000775.4,286046996.8,N
1622000795.2,286046997.5,N
1622000815.1,286046997.5,N
1622000816.0,286046997.5,N
1622000835.8,286046995.4,Y
1622000855.7,286046999.5,P
1622000875.5,286046999.1,N
1622000895.3,286046999.5,N
1622000915.2,286046996.5,Y
1622000935.0,286046999.1,P
1622000935.9,286046999.1,P
1622000955.7,286046999.2,P
1622000975.6,286046999.1,Y
1622000995.4,286046999.6,P
1622001015.3,286046999.5,N
1622001035.1,286046999.6,N
1622001055.8,286046996.6,Y
1622001075.7,286046996.7,P
1622001095.5,286046997.1,N
1622001115.4,286046997.2,N
1622001135.2,286046996.7,Y
1622001155.0,286047000.6,P
1622001155.9,286047000.6,N
1622001175.8,286047000.4,N
1622001195.6,286047000.1,N
1622001215.4,286046999.7,N
1622001235.3,286047002.5,N
1622001255.1,286047001.8,N
1622001275.9,286047001.3,N
1622001295.7,286047003.7,N
1622001315.5,286047003.6,N
1622001335.4,286047003.5,N
1622001355.2,286047003.6,N
1622001375.1,286047003.2,N
1622001376.0,286047003.2,N
1622001395.8,286047005.4,Y
1622001415.6,286047001.4,P
1622001435.5,286047004.3,P
1622001455.3,286047004.2,P
1622001475.1,286047003.6,N
1622001495.9,286047003.3,N
1622001515.7,286047003.5,Y
1622001535.6,286047002.7,P
1622001555.4,286047002.6,P
1622001575.2,286047001.9,P
1622001595.1,286047004.2,Y
1622001596.0,286047004.2,P
